Location: Bowman Observatory
(41.0326°N, 73.6210°W)
Time: 11:18:04
(UTC-04:00)

Cosmos 2298 Rocket - Visible Passes

Search period start: 24 April 2017 00:00
Search period end: 04 May 2017 00:00
Orbit: 775 x 785 km, 74.0° (Epoch: 22 April)

Date Brightness Start Highest point End Pass type
(mag) Time Alt. Az. Time Alt. Az. Time Alt. Az.
24 Apr 5.6 00:16:02 10° NNW 00:18:51 32° NNW 00:18:51 32° NNW visible
24 Apr 5.2 23:42:36 10° NNW 23:46:02 39° N 23:46:02 39° N visible
25 Apr 5.1 23:09:19 10° N 23:13:14 37° NNE 23:13:14 37° NNE visible
26 Apr 6.3 00:52:15 10° NW 00:53:44 16° WNW 00:53:44 16° WNW visible
26 Apr 5.4 22:36:13 10° N 22:40:26 28° NE 22:40:26 28° NE visible
27 Apr 5.8 00:18:17 10° NW 00:20:57 26° NW 00:20:57 26° NW visible
27 Apr 5.7 22:03:22 10° NNE 22:07:05 19° ENE 22:07:41 18° ENE visible
27 Apr 5.1 23:44:35 10° NNW 23:48:12 41° NW 23:48:12 41° NW visible
28 Apr 6.1 21:31:02 10° NNE 21:33:16 12° NE 21:34:56 11° ENE visible
28 Apr 4.4 23:11:04 10° NNW 23:15:27 61° NNW 23:15:27 61° NNW visible
29 Apr 4.3 22:37:42 10° N 22:42:44 55° ENE 22:42:44 55° ENE visible
30 Apr 6.3 00:21:16 10° NW 00:23:16 16° WNW 00:23:16 16° WNW visible
30 Apr 4.8 22:04:29 10° N 22:09:23 35° ENE 22:10:03 34° E visible
30 Apr 5.6 23:47:02 10° NW 23:50:34 27° W 23:50:34 27° W visible
01 May 5.4 21:31:28 10° N 21:35:44 24° ENE 21:37:23 20° E visible
01 May 4.8 23:13:12 10° NNW 23:17:54 44° W 23:17:54 44° W visible
02 May 5.9 20:58:45 10° NNE 21:01:59 16° NE 21:04:45 11° E visible
02 May 4.0 22:39:34 10° NNW 22:44:54 73° WSW 22:45:16 69° SW visible
03 May 6.2 20:27:11 10° NE 20:28:08 10° NE 20:29:04 10° ENE visible
03 May 4.0 22:06:07 10° NNW 22:11:28 72° ENE 22:12:40 53° SE visible
03 May 6.3 23:50:36 10° WNW 23:53:04 13° W 23:53:11 13° W visible
